FW7989 Weather Reports


time (UTC)temp
C
wind
direction
speed
KPH
gust
KPH
rain 1hr
cm
rain 24hr
cm
rain mn
cm
humidity
%
barometer
mb
20260502195058 12 34 0.0 3.2 0.00 1.96 1.96 92 1011.5
20260502194603 12 34 0.0 3.2 0.00 1.96 1.96 92 1011.5
20260502194058 12 0 0.0 3.2 0.00 1.96 1.96 92 1011.6
20260502193558 12 34 0.0 3.2 0.03 1.96 1.96 92 1011.5
20260502193059 12 0 0.0 1.6 0.05 1.96 1.96 92 1011.7
20260502192559 12 0 0.0 1.6 0.05 1.96 1.96 92 1011.6
20260502192059 12 0 0.0 1.6 0.08 1.96 1.96 92 1011.7
20260502191605 12 0 0.0 3.2 0.08 1.96 1.96 92 1011.6
20260502191102 12 0 0.0 6.4 0.08 1.96 1.96 92 1011.6
20260502190601 12 34 1.6 6.4 0.08 1.96 1.96 92 1011.5
20260502185558 12 5 3.2 6.4 0.13 1.96 1.96 92 1011.5
20260502185058 12 25 1.6 6.4 0.18 1.96 1.96 92 1011.5
20260502184603 12 11 1.6 6.4 0.20 1.96 1.96 92 1011.6
20260502184058 12 26 1.6 8.0 0.28 1.96 1.96 92 1011.7
20260502183559 12 5 3.2 8.0 0.30 1.93 1.93 91 1011.7
20260502183101 12 5 3.2 8.0 0.36 1.91 1.91 92 1011.8
20260502182559 12 360 3.2 8.0 0.38 1.91 1.91 91 1011.8
20260502182058 12 349 3.2 6.4 0.46 1.88 1.88 91 1011.9
20260502181558 12 349 3.2 6.4 0.48 1.88 1.88 91 1011.9
20260502181058 12 352 3.2 6.4 0.58 1.88 1.88 91 1011.9
20260502180558 12 20 3.2 6.4 0.64 1.85 1.85 91 1012.0
20260502170106 12 0 0.0 4.8 0.46 1.07 1.07 91 1012.4
20260502164100 13 206 1.6 6.4 0.23 0.76 0.76 90 1012.4
20260502163558 13 194 3.2 6.4 0.18 0.69 0.69 89 1012.4
20260502163108 13 200 0.0 8.0 0.18 0.64 0.64 89 1012.4
20260502162558 13 292 0.0 8.0 0.18 0.64 0.64 90 1012.3
20260502162057 13 344 1.6 8.0 0.23 0.61 0.61 90 1012.2
20260502161610 13 342 4.8 8.0 0.28 0.61 0.61 89 1012.3
20260502161057 13 327 3.2 6.4 0.28 0.58 0.58 89 1012.4
20260502160558 13 317 1.6 9.7 0.33 0.58 0.58 89 1012.4
20260502160107 13 348 4.8 9.7 0.36 0.58 0.58 88 1012.5
20260502152100 13 0 0.0 1.6 0.36 0.36 0.36 85 1013.2
20260502151612 13 0 0.0 1.6 0.33 0.33 0.33 84 1013.4
20260502151058 13 0 0.0 3.2 0.28 0.28 0.28 84 1013.5
20260502150558 13 0 0.0 4.8 0.25 0.25 0.25 84 1013.5
20260502130558 17 157 1.6 4.8 0.00 0.00 0.00 67 1014.7
20260502130108 17 223 1.6 6.4 0.00 0.00 0.00 65 1014.7
20260502123558 17 77 3.2 9.7 0.00 0.00 0.00 64 1015.0
20260502123102 17 17 1.6 9.7 0.00 0.00 0.00 62 1015.0
20260502122559 17 124 1.6 4.8 0.00 0.00 0.00 65 1015.0
20260502122058 17 80 1.6 4.8 0.00 0.00 0.00 60 1015.1
20260502121558 17 0 0.0 9.7 0.00 0.00 0.00 60 1015.1
20260502121058 17 107 3.2 11.3 0.00 0.00 0.00 60 1015.3
20260502120558 17 82 1.6 11.3 0.00 0.00 0.00 62 1015.5
20260502120104 17 118 1.6 6.4 0.00 0.00 0.00 63 1015.6
20260502115557 17 0 0.0 6.4 0.00 0.00 0.00 62 1015.5
20260502115057 17 123 3.2 11.3 0.00 0.00 0.00 63 1015.6
20260502114558 17 0 3.2 11.3 0.00 0.00 0.00 66 1015.7
20260502114100 17 182 4.8 11.3 0.00 0.00 0.00 65 1015.7
20260502113558 17 179 4.8 9.7 0.00 0.00 0.00 63 1015.8
20260502113057 17 217 1.6 6.4 0.00 0.00 0.00 61 1015.6
20260502112557 17 338 1.6 6.4 0.00 0.00 0.00 60 1015.7
20260502112058 17 285 1.6 6.4 0.00 0.00 0.00 62 1015.8
20260502111558 17 123 1.6 9.7 0.00 0.00 0.00 61 1015.8
20260502111057 17 131 3.2 11.3 0.00 0.00 0.00 60 1016.0
20260502110558 17 159 3.2 11.3 0.00 0.00 0.00 61 1016.1
20260502105559 17 223 4.8 14.5 0.00 0.00 0.00 63 1016.4
20260502105058 17 157 4.8 14.5 0.00 0.00 0.00 66 1016.4
20260502104600 17 175 8.0 14.5 0.00 0.00 0.00 68 1016.5
20260502104058 17 159 4.8 14.5 0.00 0.00 0.00 66 1016.5
20260502103558 17 160 3.2 19.3 0.00 0.00 0.00 66 1016.6
20260502103105 17 185 4.8 20.9 0.00 0.00 0.00 65 1016.8
20260502102600 17 171 4.8 20.9 0.00 0.00 0.00 68 1016.9
20260502102058 17 186 8.0 16.1 0.00 0.00 0.00 68 1016.9
20260502101616 17 106 6.4 14.5 0.00 0.00 0.00 66 1017.1
20260502101057 17 0 4.8 14.5 0.00 0.00 0.00 67 1017.1
20260502100558 17 0 4.8 12.9 0.00 0.00 0.00 64 1017.1
20260502100105 17 126 6.4 12.9 0.00 0.00 0.00 67 1017.1
20260502091057 16 146 4.8 16.1 0.00 0.00 0.00 70 1017.3
20260502090559 16 175 3.2 12.9 0.00 0.00 0.00 73 1017.2
20260502090115 15 175 4.8 12.9 0.00 0.00 0.00 75 1017.2
20260502071057 12 171 4.8 11.3 0.00 0.00 0.00 82 1018.1
20260502070558 12 126 4.8 12.9 0.00 0.00 0.00 82 1018.0
20260502070111 12 134 4.8 12.9 0.00 0.00 0.00 83 1018.0
20260502065558 12 130 3.2 11.3 0.00 0.00 0.00 83 1017.9
20260502065059 11 175 3.2 9.7 0.00 0.00 0.00 83 1017.9
20260502064613 11 89 3.2 9.7 0.00 0.00 0.00 86 1017.9
20260502064058 11 144 4.8 12.9 0.00 0.00 0.00 87 1018.0
20260502063558 10 143 6.4 12.9 0.00 0.00 0.00 89 1018.1
20260502063101 10 163 3.2 11.3 0.00 0.00 0.00 90 1017.9
20260502062557 9 126 4.8 11.3 0.00 0.00 0.00 91 1018.0
20260502062058 9 153 3.2 8.0 0.00 0.00 0.00 91 1017.9
20260502061558 8 98 1.6 6.4 0.00 0.00 0.00 91 1017.9
20260502061059 8 128 0.0 6.4 0.00 0.00 0.00 91 1018.1
20260502060558 8 157 1.6 11.3 0.00 0.00 0.00 91 1018.1
20260502060058 8 158 1.6 11.3 0.00 0.00 0.00 91 1018.1
20260502055559 8 119 4.8 11.3 0.00 0.00 0.00 91 1018.1
20260502055059 8 172 3.2 9.7 0.00 0.00 0.00 91 1018.2
20260502054603 8 150 4.8 9.7 0.00 0.00 0.00 91 1018.3
20260502054101 8 150 3.2 9.7 0.00 0.00 0.00 92 1018.3
20260502053558 8 173 3.2 8.0 0.00 0.00 0.00 92 1018.3
20260502053058 8 165 1.6 6.4 0.00 0.00 0.00 91 1018.3
20260502052558 8 139 1.6 6.4 0.00 0.00 0.00 91 1018.2
20260502052102 8 150 3.2 6.4 0.00 0.00 0.00 91 1018.2
20260502051600 8 187 3.2 6.4 0.00 0.00 0.00 91 1018.2
20260502051058 8 184 1.6 6.4 0.00 0.00 0.00 92 1018.2
20260502050559 8 167 0.0 6.4 0.00 0.00 0.00 92 1018.2
20260502050059 8 217 0.0 3.2 0.00 0.00 0.00 92 1018.2
20260502045559 8 0 0.0 1.6 0.00 0.00 0.00 92 1018.1
20260502045058 8 0 0.0 1.6 0.00 0.00 0.00 92 1018.1
20260502044559 8 0 0.0 3.2 0.00 0.00 0.00 92 1018.1
20260502044057 8 0 0.0 3.2 0.00 0.00 0.00 93 1018.1
20260502043557 8 57 0.0 3.2 0.00 0.00 0.00 93 1018.1
20260502043056 8 0 0.0 6.4 0.00 0.00 0.00 93 1018.1
20260502042601 8 0 0.0 6.4 0.00 0.00 0.00 93 1018.1
20260502042058 8 150 0.0 4.8 0.00 0.00 0.00 93 1018.1
20260502041605 8 130 0.0 3.2 0.00 0.00 0.00 93 1018.1
20260502041058 7 0 0.0 0.0 0.00 0.00 0.00 93 1018.2
20260502040557 7 0 0.0 0.0 0.00 0.00 0.00 93 1018.2
20260502040058 7 0 0.0 0.0 0.00 0.00 0.00 93 1018.3
20260502035557 7 0 0.0 0.0 0.00 0.00 0.00 93 1018.3
20260502035057 7 0 0.0 0.0 0.00 0.00 0.00 92 1018.3
20260502034558 7 0 0.0 0.0 0.00 0.00 0.00 92 1018.4
20260502034057 7 0 0.0 4.8 0.00 0.00 0.00 92 1018.4
20260502033557 7 0 0.0 4.8 0.00 0.00 0.00 91 1018.5
20260502033117 7 0 0.0 4.8 0.00 0.00 0.00 92 1018.4
20260502032557 7 0 0.0 0.0 0.00 0.00 0.00 92 1018.5
20260502032102 7 0 0.0 0.0 0.00 0.00 0.00 91 1018.7
20260502031607 7 0 0.0 0.0 0.00 0.00 0.00 90 1018.8
20260502031058 7 0 0.0 0.0 0.00 0.00 0.00 90 1018.7
20260502030558 7 0 0.0 0.0 0.00 0.00 0.00 91 1018.7
20260502030103 7 0 0.0 0.0 0.00 0.00 0.00 90 1018.8
20260502025557 7 0 0.0 0.0 0.00 0.00 0.00 90 1018.7
20260502025100 7 0 0.0 0.0 0.00 0.00 0.00 90 1018.8
20260502024610 8 0 0.0 0.0 0.00 0.00 0.00 89 1019.0
20260502024101 8 0 0.0 0.0 0.00 0.00 0.00 90 1018.9
20260502023557 8 0 0.0 0.0 0.00 0.00 0.00 90 1019.0
20260502023141 8 0 0.0 0.0 0.00 0.00 0.00 91 1019.0
20260502022604 8 0 0.0 0.0 0.00 0.00 0.00 93 1019.0
20260502022103 8 0 0.0 0.0 0.00 0.00 0.00 93 1019.0
20260502021601 8 0 0.0 0.0 0.00 0.00 0.00 93 1019.2
20260502021102 8 0 0.0 0.0 0.00 0.00 0.00 93 1019.1
20260502020559 8 0 0.0 0.0 0.00 0.00 0.00 93 1019.2
20260502015558 7 0 0.0 0.0 0.00 0.00 0.00 92 1019.3
20260502015057 7 0 0.0 0.0 0.00 0.00 0.00 92 1019.3
20260502014558 7 0 0.0 0.0 0.00 0.00 0.00 91 1019.2
20260502014100 7 0 0.0 0.0 0.00 0.00 0.00 91 1019.3
20260502013600 7 0 0.0 0.0 0.00 0.00 0.00 91 1019.5
20260502013103 7 0 0.0 0.0 0.00 0.00 0.00 91 1019.4
20260502012600 7 0 0.0 0.0 0.00 0.00 0.00 90 1019.4
20260502012100 7 0 0.0 0.0 0.00 0.00 0.00 89 1019.4
20260502011559 7 0 0.0 0.0 0.00 0.00 0.00 89 1019.5
20260502011058 7 0 0.0 0.0 0.00 0.00 0.00 88 1019.6
20260502010557 7 0 0.0 0.0 0.00 0.00 0.00 88 1019.5
20260502010100 8 0 0.0 0.0 0.00 0.00 0.00 88 1019.6
20260502005602 8 0 0.0 3.2 0.00 0.00 0.00 89 1019.5
20260502005057 8 0 0.0 3.2 0.00 0.00 0.00 90 1019.6
20260502004600 8 19 1.6 3.2 0.00 0.00 0.00 88 1019.7
20260502004058 8 0 0.0 0.0 0.00 0.00 0.00 86 1019.8
20260502003600 8 0 0.0 0.0 0.00 0.00 0.00 85 1019.8
20260502003057 8 0 0.0 0.0 0.00 0.00 0.00 84 1019.8
20260502002600 9 0 0.0 1.6 0.00 0.00 0.00 83 1019.9
20260502002057 10 0 0.0 1.6 0.00 0.00 0.00 84 1019.9
20260502001636 10 0 0.0 3.2 0.00 0.00 0.00 85 1019.9
20260502001057 10 0 0.0 3.2 0.00 0.00 0.00 87 1019.8
20260502000603 10 0 0.0 3.2 0.00 0.00 0.00 87 1019.8
20260502000123 10 0 0.0 3.2 0.00 0.00 0.00 87 1020.0
20260501235604 10 19 1.6 3.2 0.00 0.00 0.00 87 1019.9
20260501235059 10 338 0.0 1.6 0.00 0.00 0.00 86 1020.0
20260501234600 10 0 0.0 3.2 0.00 0.00 0.00 85 1020.0
20260501234058 10 0 0.0 3.2 0.00 0.00 0.00 84 1020.1
20260501233558 11 338 1.6 3.2 0.00 0.00 0.00 85 1020.0
20260501233059 11 338 0.0 4.8 0.00 0.00 0.00 85 1020.1
20260501232557 11 331 0.0 4.8 0.00 0.00 0.00 84 1020.2
20260501232057 11 0 0.0 4.8 0.00 0.00 0.00 85 1020.2
20260501231607 11 0 1.6 4.8 0.00 0.00 0.00 85 1020.3
20260501231058 11 343 1.6 4.8 0.00 0.00 0.00 86 1020.4
20260501230600 11 314 1.6 4.8 0.00 0.00 0.00 85 1020.4
20260501230059 11 317 1.6 4.8 0.00 0.00 0.00 85 1020.5
20260501225600 11 319 1.6 4.8 0.00 0.00 0.00 85 1020.5
20260501225058 11 344 1.6 4.8 0.00 0.00 0.00 85 1020.5
20260501224614 11 327 1.6 4.8 0.00 0.00 0.00 85 1020.5
20260501224057 11 314 1.6 4.8 0.00 0.00 0.00 86 1020.5
20260501223557 11 326 1.6 4.8 0.00 0.00 0.00 87 1020.5
20260501223058 11 317 1.6 3.2 0.00 0.00 0.00 87 1020.6
20260501222602 10 317 0.0 3.2 0.00 0.00 0.00 87 1020.6
20260501222059 10 317 0.0 1.6 0.00 0.00 0.00 87 1020.6
20260501221556 11 0 0.0 1.6 0.00 0.00 0.00 86 1020.7
20260501221058 11 0 0.0 1.6 0.00 0.00 0.00 86 1020.6
20260501220558 11 0 0.0 1.6 0.00 0.00 0.00 86 1020.5
20260501220100 11 0 0.0 1.6 0.00 0.00 0.00 86 1020.5
20260501215600 11 0 0.0 1.6 0.00 0.00 0.00 86 1020.5
20260501215101 11 0 0.0 1.6 0.00 0.00 0.00 85 1020.5
20260501214559 11 0 0.0 1.6 0.00 0.00 0.00 87 1020.4
20260501214057 10 0 0.0 1.6 0.00 0.00 0.00 87 1020.5
20260501213557 10 0 0.0 1.6 0.00 0.00 0.00 87 1020.5
20260501213056 10 0 0.0 1.6 0.00 0.00 0.00 85 1020.5
20260501212601 11 0 0.0 3.2 0.00 0.00 0.00 85 1020.5
20260501212057 11 317 0.0 3.2 0.00 0.00 0.00 87 1020.5
20260501211557 10 317 0.0 1.6 0.00 0.00 0.00 86 1020.5
20260501211058 10 0 0.0 3.2 0.00 0.00 0.00 86 1020.6
20260501210601 10 0 0.0 3.2 0.00 0.00 0.00 86 1020.5
20260501210059 10 0 0.0 3.2 0.00 0.00 0.00 85 1020.4
20260501205600 10 0 0.0 3.2 0.00 0.00 0.00 83 1020.5
20260501205057 11 0 0.0 3.2 0.00 0.00 0.00 85 1020.3
20260501204605 11 338 0.0 3.2 0.00 0.00 0.00 85 1020.3
20260501204058 11 284 0.0 1.6 0.00 0.00 0.00 85 1020.3
20260501203558 11 0 0.0 1.6 0.00 0.00 0.00 85 1020.4
20260501203106 11 0 0.0 0.0 0.00 0.00 0.00 85 1020.4
20260501202559 11 0 0.0 1.6 0.00 0.00 0.00 84 1020.5
20260501202101 11 0 0.0 1.6 0.00 0.00 0.00 84 1020.5
20260501201600 11 0 0.0 1.6 0.00 0.00 0.00 84 1020.5
20260501201059 11 0 0.0 0.0 0.00 0.00 0.00 84 1020.5
20260501200558 11 0 0.0 0.0 0.00 0.00 0.00 82 1020.5
20260501195558 11 0 0.0 1.6 0.00 0.00 0.00 83 1020.4